Tulsa, OK

12:21 AM CDT on August 24, 2017 (GMT -0500)
Tulsa International

Weather History for KTUL - February, 2011

Change the Weather History Date:

Monday, February 21, 2011

  Actual Average Record
Temperature  
Mean Temperature 50 °F 44 °F  
Max Temperature 67 °F 55 °F 82 °F (1996)
Min Temperature 33 °F 33 °F 7 °F (1939)
Degree Days  
Heating Degree Days 15 21  
Month to date heating degree days 612 499  
Since 1 July heating degree days 2870 2772  
Moisture  
Dew Point 30 °F    
Average Humidity 63    
Maximum Humidity 92    
Minimum Humidity 34    
Precipitation  
Precipitation T in 0.08 in 1.43 in (1913)
Month to date precipitation 1.56 1.31  
Year to date precipitation 2.13 2.97  
Sea Level Pressure  
Sea Level Pressure 29.87 in    
Wind  
Wind Speed 13 mph (NNW)    
Max Wind Speed 24 mph    
Max Gust Speed 32 mph    
Visibility 9 miles    
Events Rain    
T = Trace of Precipitation, MM = Missing Value Source: NWS Daily Summary

Daily Weather History Graph

Daily Weather History Graph

Search for Another Location

Airport or City:

Trip Planner

Search our weather history database for the weather conditions in past years. The results will help you decide how hot, cold, wet, or windy it might be!

Date:

Astronomy

Feb. 21, 2011 Rise Set
Actual Time 7:04 AM CST 6:10 PM CST
Civil Twilight 6:38 AM CST 6:36 PM CST
Nautical Twilight 6:08 AM CST 7:06 PM CST
Astronomical Twilight 5:38 AM CST 7:36 PM CST
Moon 10:35 PM CST (2/21) 8:44 AM CST (2/21)
Length of Visible Light 11h 58m
Length of Day
11h 06m
Waning Gibbous, 84% of the Moon is Illuminated
Feb 21
Waning Gibbous
Feb 24
Last Quarter
Mar 4
New
Mar 12
First Quarter
Mar 19
Full

Hourly Weather History & Observations

Time (CST) Temp. Windchill Dew Point Humidity Pressure Visibility Wind Dir Wind Speed Gust Speed Precip Events Conditions
12:53 AM 66.0 °F - 55.0 °F 68% 29.57 in 10.0 mi South 9.2 mph - N/A   Partly Cloudy
1:53 AM 66.0 °F - 55.9 °F 70% 29.57 in 10.0 mi South 12.7 mph 20.7 mph N/A   Mostly Cloudy
2:53 AM 64.9 °F - 55.9 °F 73% 29.57 in 10.0 mi SSW 9.2 mph 18.4 mph N/A   Scattered Clouds
3:35 AM 53.6 °F - 46.4 °F 77% 29.62 in 10.0 mi North 18.4 mph - N/A   Overcast
3:53 AM 51.1 °F - 44.1 °F 77% 29.62 in 10.0 mi NNW 17.3 mph 23.0 mph N/A   Overcast
4:53 AM 44.1 °F 35.2 °F 37.0 °F 76% 29.68 in 10.0 mi NNW 23.0 mph 27.6 mph 0.00 in Rain Light Rain
5:53 AM 41.0 °F 31.6 °F 34.0 °F 76% 29.71 in 10.0 mi North 20.7 mph 26.5 mph 0.00 in   Overcast
6:53 AM 39.0 °F 29.3 °F 32.0 °F 76% 29.76 in 10.0 mi North 19.6 mph 28.8 mph N/A   Overcast
7:24 AM 35.6 °F 25.5 °F 33.8 °F 93% 29.79 in 4.0 mi NNW 17.3 mph - 0.00 in   Light Drizzle
7:26 AM 35.6 °F 25.5 °F 33.8 °F 93% 29.79 in 3.0 mi NNW 17.3 mph - 0.00 in   Light Drizzle
7:53 AM 35.1 °F 25.2 °F 33.1 °F 92% 29.81 in 5.0 mi North 16.1 mph 26.5 mph 0.00 in   Overcast
8:23 AM 35.6 °F 26.6 °F 32.0 °F 87% 29.83 in 10.0 mi NNW 13.8 mph - N/A   Overcast
8:53 AM 37.0 °F 28.1 °F 28.9 °F 73% 29.85 in 10.0 mi NNW 15.0 mph 20.7 mph N/A   Overcast
9:53 AM 37.9 °F 29.2 °F 27.0 °F 65% 29.89 in 10.0 mi NW 15.0 mph - N/A   Overcast
10:53 AM 36.0 °F 25.6 °F 23.0 °F 59% 29.93 in 10.0 mi NNW 18.4 mph - N/A   Overcast
11:53 AM 37.0 °F 27.0 °F 21.9 °F 54% 29.96 in 10.0 mi NNW 18.4 mph - N/A   Overcast
12:53 PM 39.0 °F 31.8 °F 21.9 °F 50% 29.95 in 10.0 mi NNW 11.5 mph 19.6 mph N/A   Mostly Cloudy
1:04 PM 39.2 °F 30.8 °F 21.2 °F 49% 29.95 in 10.0 mi NW 15.0 mph - N/A   Mostly Cloudy
1:53 PM 41.0 °F 35.2 °F 19.9 °F 43% 29.94 in 10.0 mi NNW 9.2 mph - N/A   Mostly Cloudy
2:53 PM 46.9 °F - 21.9 °F 37% 29.94 in 10.0 mi NW 10.4 mph - N/A   Scattered Clouds
3:53 PM 48.9 °F - 21.0 °F 33% 29.95 in 10.0 mi NNW 10.4 mph - N/A   Partly Cloudy
4:53 PM 46.9 °F - 19.9 °F 34% 29.98 in 10.0 mi NW 9.2 mph - N/A   Clear
5:53 PM 46.9 °F - 21.0 °F 36% 29.99 in 10.0 mi North 8.1 mph - N/A   Clear
6:53 PM 42.1 °F 37.7 °F 21.0 °F 43% 30.02 in 10.0 mi North 6.9 mph - N/A   Clear
7:53 PM 39.0 °F 33.4 °F 21.0 °F 49% 30.06 in 10.0 mi North 8.1 mph - N/A   Clear
8:53 PM 35.1 °F 29.3 °F 21.9 °F 59% 30.09 in 10.0 mi NNW 6.9 mph - N/A   Clear
9:53 PM 35.1 °F 28.6 °F 21.9 °F 59% 30.12 in 10.0 mi North 8.1 mph - N/A   Clear
10:53 PM 35.1 °F 27.4 °F 18.0 °F 50% 30.14 in 10.0 mi North 10.4 mph - N/A   Clear
11:53 PM 33.1 °F 25.5 °F 17.1 °F 52% 30.15 in 10.0 mi North 9.2 mph - N/A   Clear